ES2JT Weather Reports


time (UTC)temp
F
wind
direction
speed
knots
gust
knots
rain 1hr
in
rain 24hr
in
rain mn
in
humidity
%
barometer
mb
20260507084226 55 34 7.0 8.7 0.00 0.00 0.00 53 1009.5
20260507083326 55 27 7.0 8.7 0.00 0.00 0.00 50 1009.6
20260507082425 55 349 7.8 9.6 0.00 0.00 0.00 46 1010.0
20260507081525 56 12 6.1 7.8 0.00 0.00 0.00 45 1010.1
20260507080625 55 16 6.1 7.0 0.00 0.00 0.00 47 1010.1
20260507075727 54 12 6.1 7.8 0.00 0.00 0.00 48 1010.1
20260507075039 53 29 6.1 7.8 0.00 0.00 0.00 50 1010.1
20260507073926 53 21 5.2 7.0 0.00 0.00 0.00 49 1009.9
20260507073025 55 20 5.2 7.0 0.00 0.00 0.00 47 1009.9
20260507072125 54 21 6.1 7.0 0.00 0.00 0.00 48 1009.9
20260507071225 55 33 5.2 6.1 0.00 0.00 0.00 43 1009.8
20260507070326 56 15 5.2 7.0 0.00 0.00 0.00 45 1009.9
20260507065426 56 17 5.2 6.1 0.00 0.00 0.00 47 1009.9
20260507064526 54 19 6.1 7.0 0.00 0.00 0.00 48 1009.8
20260507063625 54 25 5.2 6.1 0.00 0.00 0.00 49 1009.8
20260507062727 53 21 4.3 5.2 0.00 0.00 0.00 52 1009.7
20260507061826 54 28 5.2 6.1 0.00 0.00 0.00 51 1009.7
20260507060926 53 14 4.3 6.1 0.00 0.00 0.00 53 1009.8
20260507060025 54 26 3.5 6.1 0.00 0.00 0.00 52 1009.8
20260507055126 54 42 5.2 6.1 0.00 0.00 0.00 51 1009.6
20260507054226 54 7 4.3 6.1 0.00 0.00 0.00 52 1009.5
20260507053325 54 40 3.5 4.3 0.00 0.00 0.00 56 1009.8
20260507052426 52 9 3.5 4.3 0.00 0.00 0.00 67 1009.7
20260507051525 49 9 4.3 4.3 0.00 0.00 0.00 78 1009.6
20260507050625 46 3 2.6 3.5 0.00 0.00 0.00 86 1009.7
20260507045727 43 360 1.7 3.5 0.00 0.00 0.00 89 1009.4
20260507044825 42 360 0.9 1.7 0.00 0.00 0.00 91 1009.5
20260507043926 41 34 0.0 0.9 0.00 0.00 0.00 92 1009.5
20260507043025 39 0 0.0 0.0 0.00 0.00 0.00 93 1009.5
20260507042126 39 360 0.0 1.7 0.00 0.00 0.00 94 1009.5
20260507041225 38 347 0.9 1.7 0.00 0.00 0.00 95 1009.5
20260507040325 38 0 0.0 0.0 0.00 0.00 0.00 95 1009.5
20260507035426 37 0 0.0 0.0 0.00 0.00 0.00 91 1009.7
20260507034525 36 315 0.0 0.9 0.00 0.00 0.00 91 1009.6
20260507033626 36 315 0.0 0.9 0.00 0.00 0.00 91 1009.4
20260507032727 35 287 0.0 0.9 0.00 0.00 0.00 91 1009.3
20260507031826 34 275 0.0 0.9 0.00 0.00 0.00 91 1009.5
20260507030926 33 267 0.9 1.7 0.00 0.00 0.00 91 1009.3
20260507030026 33 252 0.9 1.7 0.00 0.00 0.00 91 1009.4
20260507025125 33 228 0.9 1.7 0.00 0.00 0.00 91 1009.6
20260507024228 33 235 0.9 1.7 0.00 0.00 0.00 91 1009.2
20260507023325 33 174 0.9 1.7 0.00 0.00 0.00 91 1009.2
20260507022425 33 315 0.0 0.9 0.00 0.00 0.00 91 1009.2
20260507021525 34 295 0.9 1.7 0.00 0.00 0.00 90 1009.3
20260507020626 34 0 0.0 0.0 0.00 0.00 0.00 89 1009.2
20260507015725 34 0 0.0 0.0 0.00 0.00 0.00 89 1009.2
20260507015038 34 313 0.9 1.7 0.00 0.00 0.00 89 1009.3
20260507013925 34 200 0.9 1.7 0.00 0.00 0.00 89 1009.3
20260507013025 34 209 0.9 1.7 0.00 0.00 0.00 89 1009.2
20260507012125 34 199 0.9 1.7 0.00 0.00 0.00 89 1009.0
20260507011227 34 167 0.0 1.7 0.00 0.00 0.00 89 1009.1
20260507010326 34 252 0.9 1.7 0.00 0.00 0.00 88 1009.3
20260507005426 34 296 0.9 1.7 0.00 0.00 0.00 88 1009.2
20260507004525 34 228 0.9 1.7 0.00 0.00 0.00 87 1009.2
20260507003625 34 240 0.9 1.7 0.00 0.00 0.00 87 1009.0
20260507002726 34 210 0.9 1.7 0.00 0.00 0.00 86 1009.1
20260507001825 33 205 0.0 1.7 0.00 0.00 0.00 87 1008.9
20260507000926 33 198 0.9 1.7 0.00 0.00 0.00 86 1009.0
20260507000025 33 190 0.9 1.7 0.00 0.00 0.00 86 1008.9
20260506235126 34 216 0.9 1.7 0.00 0.00 0.00 85 1009.0
20260506234226 34 236 0.9 1.7 0.00 0.00 0.00 85 1009.0
20260506233325 34 225 0.0 1.7 0.00 0.00 0.00 84 1009.3
20260506232425 34 203 1.7 1.7 0.00 0.00 0.00 83 1009.1
20260506231526 34 221 0.9 1.7 0.00 0.00 0.00 83 1009.0
20260506230835 35 192 0.9 1.7 0.00 0.00 0.00 82 1009.1
20260506225726 35 270 0.9 1.7 0.00 0.00 0.00 81 1009.0
20260506224826 35 0 0.0 0.0 0.00 0.00 0.00 80 1009.0
20260506223925 35 272 0.0 1.7 0.00 0.00 0.00 80 1009.0
20260506223026 36 247 0.9 1.7 0.00 0.00 0.00 78 1009.1
20260506222125 36 287 0.0 0.9 0.00 0.00 0.00 78 1008.9
20260506221226 36 294 0.0 1.7 0.00 0.00 0.00 77 1008.9
20260506220536 37 292 0.9 1.7 0.00 0.00 0.00 76 1008.9
20260506215426 37 183 0.9 1.7 0.00 0.00 0.00 75 1008.9
20260506214525 37 180 0.9 1.7 0.00 0.00 0.00 75 1009.0
20260506213625 37 180 0.0 1.7 0.00 0.00 0.00 75 1008.7
20260506212727 37 187 0.9 1.7 0.00 0.00 0.00 78 1008.6
20260506211825 38 229 0.9 1.7 0.00 0.00 0.00 78 1008.8
20260506210925 38 135 0.0 1.7 0.00 0.00 0.00 76 1008.5
20260506210026 38 202 0.0 0.9 0.00 0.00 0.00 76 1008.6
20260506205335 38 202 0.0 0.9 0.00 0.00 0.00 75 1008.6
20260506204227 39 207 0.9 1.7 0.00 0.00 0.00 75 1008.5
20260506203325 39 184 1.7 1.7 0.00 0.00 0.00 74 1008.4
20260506202425 39 184 0.9 1.7 0.00 0.00 0.00 73 1008.4
20260506201526 39 176 0.0 1.7 0.00 0.00 0.00 71 1008.5
20260506200837 40 146 1.7 1.7 0.00 0.00 0.00 70 1008.6
20260506195728 40 170 1.7 2.6 0.00 0.00 0.00 68 1008.7
20260506194825 41 173 1.7 2.6 0.00 0.00 0.00 68 1008.6
20260506194139 41 168 1.7 2.6 0.00 0.00 0.00 65 1008.6
20260506193026 42 191 1.7 2.6 0.00 0.00 0.00 63 1008.8
20260506192125 42 341 1.7 2.6 0.00 0.00 0.00 62 1008.7
20260506191227 42 340 1.7 2.6 0.00 0.00 0.00 62 1008.7
20260506190326 42 340 2.6 3.5 0.00 0.00 0.00 62 1008.5
20260506185425 42 329 2.6 3.5 0.00 0.00 0.00 61 1008.5
20260506184526 43 341 2.6 3.5 0.00 0.00 0.00 60 1008.7
20260506183625 43 309 3.5 3.5 0.00 0.00 0.00 61 1008.4
20260506182726 43 333 2.6 3.5 0.00 0.00 0.00 61 1008.4
20260506181826 43 327 2.6 3.5 0.00 0.00 0.00 61 1008.3
20260506180925 44 317 2.6 3.5 0.00 0.00 0.00 60 1008.4
20260506180025 44 305 2.6 3.5 0.00 0.00 0.00 59 1008.3
20260506175125 45 298 2.6 3.5 0.00 0.00 0.00 57 1008.4
20260506174227 45 307 1.7 3.5 0.00 0.00 0.00 55 1008.3
20260506173325 46 301 1.7 3.5 0.00 0.00 0.00 53 1008.5
20260506172425 46 278 2.6 3.5 0.00 0.00 0.00 51 1008.6
20260506171525 46 315 1.7 2.6 0.00 0.00 0.00 50 1008.5
20260506170625 46 286 1.7 3.5 0.00 0.00 0.00 51 1008.4
20260506165727 47 323 1.7 3.5 0.00 0.00 0.00 50 1008.3
20260506164825 47 284 2.6 4.3 0.00 0.00 0.00 47 1008.8
20260506163926 48 299 2.6 4.3 0.00 0.00 0.00 46 1008.5
20260506163025 49 278 3.5 5.2 0.00 0.00 0.00 43 1008.5
20260506162126 49 302 4.3 6.1 0.00 0.00 0.00 41 1008.5
20260506161225 51 296 4.3 7.0 0.00 0.00 0.00 40 1008.6
20260506160326 51 304 3.5 6.1 0.00 0.00 0.00 42 1008.6
20260506155426 50 335 3.5 6.1 0.00 0.00 0.00 47 1008.7
20260506154735 49 301 3.5 6.1 0.00 0.00 0.00 49 1008.5
20260506153625 49 303 5.2 7.0 0.00 0.00 0.00 49 1008.7
20260506152726 50 294 4.3 7.0 0.00 0.00 0.00 47 1008.9
20260506152037 50 293 4.3 6.1 0.00 0.00 0.00 46 1009.0
20260506151139 50 298 4.3 7.0 0.00 0.00 0.00 48 1008.8
20260506150236 49 293 5.2 7.0 0.00 0.00 0.00 50 1009.1
20260506145125 49 283 5.2 6.1 0.00 0.00 0.00 50 1008.8
20260506144225 49 294 5.2 7.0 0.00 0.00 0.00 51 1009.0
20260506143326 49 295 5.2 7.0 0.00 0.00 0.00 50 1009.1
20260506142636 48 291 7.0 9.6 0.00 0.00 0.00 45 1009.0
20260506141525 50 286 6.1 7.0 0.00 0.00 0.00 43 1009.4
20260506140625 50 304 6.1 8.7 0.00 0.00 0.00 41 1009.4
20260506135725 51 274 7.0 9.6 0.00 0.00 0.00 39 1009.1
20260506134825 51 289 6.1 8.7 0.00 0.00 0.00 38 1009.2
20260506133925 53 285 6.1 8.7 0.00 0.00 0.00 34 1009.3
20260506133025 52 290 5.2 7.8 0.00 0.00 0.00 37 1009.0
20260506132126 51 310 7.0 9.6 0.00 0.00 0.00 40 1009.1
20260506131230 51 280 7.0 9.6 0.00 0.00 0.00 35 1009.0
20260506130325 52 285 7.0 9.6 0.00 0.00 0.00 32 1009.3
20260506125425 54 302 8.7 9.6 0.00 0.00 0.00 28 1009.0
20260506124525 54 297 7.0 8.7 0.00 0.00 0.00 31 1008.7
20260506123839 52 288 6.1 9.6 0.00 0.00 0.00 31 1008.8
20260506122727 53 313 7.8 9.6 0.00 0.00 0.00 30 1009.1
20260506121826 55 288 6.1 8.7 0.00 0.00 0.00 29 1009.1
20260506120926 54 305 7.0 9.6 0.00 0.00 0.00 30 1009.1
20260506120025 53 292 7.8 9.6 0.00 0.00 0.00 29 1009.0
20260506115336 54 289 8.7 10.4 0.00 0.00 0.00 28 1008.9
20260506114226 56 315 7.0 9.6 0.00 0.00 0.00 32 1009.0
20260506113325 56 321 7.0 9.6 0.00 0.00 0.00 32 1009.1
20260506112426 55 309 7.0 9.6 0.00 0.00 0.00 30 1009.2
20260506111525 54 297 7.8 9.6 0.00 0.00 0.00 28 1009.2
20260506110625 55 298 7.8 9.6 0.00 0.00 0.00 29 1009.2
20260506105725 54 296 7.8 9.6 0.00 0.00 0.00 29 1009.1
20260506104825 54 322 7.8 13.0 0.00 0.00 0.00 31 1009.3
20260506104139 53 279 8.7 11.3 0.00 0.00 0.00 31 1009.2
20260506103025 53 282 8.7 12.2 0.00 0.00 0.00 33 1009.0
20260506102125 53 285 8.7 9.6 0.00 0.00 0.00 32 1009.2
20260506101226 53 277 7.8 9.6 0.00 0.00 0.00 34 1009.1
20260506100325 53 306 7.8 11.3 0.00 0.00 0.00 39 1009.1
20260506095425 52 291 8.7 11.3 0.00 0.00 0.00 37 1009.0
20260506094525 52 294 7.8 11.3 0.00 0.00 0.00 40 1009.1
20260506093625 51 302 9.6 10.4 0.00 0.00 0.00 40 1008.9
20260506092727 51 281 9.6 13.0 0.00 0.00 0.00 38 1009.0
20260506092035 52 289 7.8 13.0 0.00 0.00 0.00 39 1008.9
20260506091138 51 288 7.8 10.4 0.00 0.00 0.00 40 1008.9
20260506090025 51 259 9.6 12.2 0.00 0.00 0.00 38 1008.5
20260506085125 51 302 8.7 12.2 0.00 0.00 0.00 42 1008.8